フィエチジョシュ彗星

C/2024 J2 ( Wierzchos )

English version
Home page
Updated on November 26, 2024

---------------------------------------------------------------------

・ プロフィール

発見日 2024年5月11日
発見光度 21.2等
発見者 Kacper W. Wierzchos (Mt. Lemmon Survey)

・ 写真集

・ 軌道要素

Epoch 2024 Oct. 17.0 TT = JDT 2460600.5
T 2025 Mar. 19.77291 TT                                 Rudenko
q   1.8109251            (2000.0)            P               Q
z  +0.0067567      Peri.  143.15435     +0.80780698     +0.56877236
 +/-0.0000093      Node   189.06091     -0.21965935     +0.53408865
e   0.9877642      Incl.   79.29672     +0.54698962     -0.62549765
From 164 observations 2024 Mar. 18-Nov. 12, mean residual 0".7.

・ 星図

・ 光度変化

        m1 = 8.0 + 5 logΔ + 15.0 log r

---------------------------------------------------------------------

軌道要素はM.P.E.C. 2024-V192に掲載されたものです。
星図はステラナビゲータ Ver.11 (アストロアーツ) で作成したものです。
光度グラフはComet for Windowsで作成したものです。

---------------------------------------------------------------------

Copyright(C) Seiichi Yoshida (comet@aerith.net). All rights reserved.